Patrick AFB, FL

5:52 AM EST on February 22, 2017 (GMT -0500)
Patrick Air Force Base

Weather History for KCOF - September, 2012

Change the Weather History Date:

Saturday, September 29, 2012

  Actual Average Record
Temperature  
Mean Temperature 80 °F -  
Max Temperature 85 °F 83 °F 91 °F (2016)
Min Temperature 77 °F 74 °F 71 °F (2001)
Cooling Degree Days 16    
Growing Degree Days 30 (Base 50)    
Moisture  
Dew Point 74 °F    
Average Humidity 78    
Maximum Humidity 89    
Minimum Humidity 68    
Precipitation  
Precipitation 0.01 in - - ()
Sea Level Pressure  
Sea Level Pressure 29.95 in    
Wind  
Wind Speed 4 mph (East)    
Max Wind Speed 12 mph    
Max Gust Speed -    
Visibility 10 miles    
Events Rain    
Averages and records for this station are not official NWS values.
T = Trace of Precipitation, MM = Missing Value Source: NWS Daily Summary

Daily Weather History Graph

Daily Weather History Graph

Search for Another Location

Airport or City:

Trip Planner

Search our weather history database for the weather conditions in past years. The results will help you decide how hot, cold, wet, or windy it might be!

Date:

Astronomy

Sep. 29, 2012 Rise Set
Actual Time 7:14 AM EDT 7:10 PM EDT
Civil Twilight 6:51 AM EDT 7:33 PM EDT
Nautical Twilight 6:23 AM EDT 8:00 PM EDT
Astronomical Twilight 5:56 AM EDT 8:28 PM EDT
Moon 6:45 PM EDT (9/29) 6:42 AM EDT (9/29)
Length of Visible Light 12h 42m
Length of Day
11h 55m
Full, 100% of the Moon is Illuminated
Sep 29
Full
Sep 29
Full
Oct 8
Last Quarter
Oct 15
New
Oct 21
First Quarter

Hourly Weather History & Observations

Time (EDT) Temp. Heat Index Dew Point Humidity Pressure Visibility Wind Dir Wind Speed Gust Speed Precip Events Conditions
12:55 AM 79.5 °F - 74.5 °F 84% 29.99 in 10.0 mi SSE 3.5 mph - N/A   Clear
1:55 AM 79.2 °F - 73.6 °F 83% 29.99 in 10.0 mi Calm Calm - N/A   Clear
2:55 AM 78.8 °F - 75.0 °F 88% 29.97 in 10.0 mi WNW 3.5 mph - N/A   Clear
3:55 AM 78.3 °F - 74.7 °F 89% 29.96 in 10.0 mi Calm Calm - N/A   Clear
4:55 AM 78.4 °F - 72.0 °F 80% 29.95 in 10.0 mi Calm Calm - N/A   Clear
5:55 AM 77.7 °F - 71.2 °F 80% 29.95 in 10.0 mi Calm Calm - N/A   Clear
6:55 AM 77.9 °F - 72.1 °F 82% 29.97 in 10.0 mi Calm Calm - N/A   Clear
7:55 AM 78.4 °F - 72.7 °F 82% 29.99 in 10.0 mi Calm Calm - N/A   Partly Cloudy
8:55 AM 80.6 °F 85.5 °F 73.9 °F 80% 30.00 in 10.0 mi NE 3.5 mph - N/A   Partly Cloudy
9:03 AM 82.4 °F 89.5 °F 75.2 °F 79% 30.00 in 10.0 mi ENE 3.5 mph - N/A   Mostly Cloudy
9:23 AM 82.4 °F 89.5 °F 75.2 °F 79% 30.00 in 10.0 mi ENE 4.6 mph - N/A   Scattered Clouds
9:55 AM 83.3 °F 89.9 °F 73.9 °F 73% 30.00 in 10.0 mi ENE 4.6 mph - N/A   Clear
10:16 AM 80.6 °F 85.4 °F 73.4 °F 79% 30.01 in 8.0 mi East 11.5 mph - N/A Rain Light Rain
10:35 AM 78.8 °F - 73.4 °F 83% 30.00 in 10.0 mi NE 6.9 mph - N/A   Partly Cloudy
10:55 AM 80.8 °F 85.6 °F 73.2 °F 78% 30.00 in 10.0 mi ENE 5.8 mph - 0.01 in   Clear
11:55 AM 81.3 °F 86.3 °F 73.2 °F 76% 30.00 in 10.0 mi East 5.8 mph - N/A   Partly Cloudy
12:55 PM 84.9 °F 93.3 °F 74.8 °F 72% 29.98 in 10.0 mi East 10.4 mph - N/A   Partly Cloudy
1:55 PM 84.4 °F 90.6 °F 72.9 °F 68% 29.94 in 10.0 mi East 9.2 mph - N/A   Clear
2:55 PM 84.6 °F 91.0 °F 73.0 °F 68% 29.92 in 10.0 mi East 8.1 mph - N/A   Clear
3:55 PM 82.8 °F 87.9 °F 72.1 °F 70% 29.90 in 10.0 mi East 6.9 mph - N/A   Partly Cloudy
4:55 PM 83.5 °F 89.7 °F 73.2 °F 71% 29.89 in 10.0 mi ENE 6.9 mph - N/A   Clear
5:55 PM 82.0 °F 87.2 °F 72.7 °F 73% 29.89 in 10.0 mi East 8.1 mph - N/A   Clear
6:55 PM 81.0 °F 86.3 °F 74.3 °F 80% 29.88 in 10.0 mi East 9.2 mph - N/A   Clear
7:55 PM 80.8 °F 85.6 °F 73.4 °F 78% 29.89 in 10.0 mi ESE 6.9 mph - N/A   Clear
8:55 PM 80.6 °F 85.5 °F 73.9 °F 80% 29.90 in 10.0 mi East 5.8 mph - N/A   Clear
9:55 PM 80.6 °F 85.9 °F 74.7 °F 82% 29.91 in 10.0 mi ESE 6.9 mph - N/A   Clear
10:55 PM 81.1 °F 86.8 °F 74.3 °F 80% 29.92 in 10.0 mi SSE 9.2 mph - N/A   Clear
11:55 PM 81.0 °F 86.3 °F 74.1 °F 80% 29.92 in 10.0 mi South 6.9 mph - N/A   Clear